SCP
1 1 1 1 1 1 1 1 1 1 1 1 1 1 0 0 0 0 0 0 0 0 0 0 0 0 0 0 0 0 0 0 0 0 0 0 0 0 0 0 0 0 0
1 1 1 1 1 1 1 1 1 1 1 1 1 0 0 0 0 0 0 0 0 0 0 0 0 0 0 0 0 0 0 0 0 0 0 0 0 0 0 0 0 0 0
2 1 1 1 1 1 1 1 1 1 1 0 0 0 0 0 0 0 0 0 0 0 0 0 0 0 0 0 0 0 0 0 0 0 0 0 0 0 0 0 0 0 0
2 2 1 1 1 1 1 1 1 1 1 0 0 0 0 0 0 0 0 0 0 0 0 0 0 0 0 0 0 0 0 0 0 0 0 0 0 0 0 0 0 0 0
2 2 2 2 2 1 1 1 1 1 0 0 0 0 0 0 0 0 0 0 0 0 0 0 0 0 0 0 0 0 0 0 0 0 0 0 0 0 0 0 0 0 0
2 2 2 2 2 1 1 1 1 1 0 0 0 0 0 0 0 0 0 0 0 0 0 0 0 0 0 0 0 0 0 0 0 0 0 0 0 0 0 0 0 0 0
2 2 2 2 2 2 1 1 1 1 0 0 0 0 0 0 0 0 0 0 0 0 0 0 0 0 0 0 0 0 0 0 0 0 0 0 0 0 0 0 0 0 0
3 3 2 2 2 2 1 1 1 1 0 0 0 0 0 0 0 0 0 0 0 0 0 0 0 0 0 0 0 0 0 0 0 0 0 0 0 0 0 0 0 0 0
4 4 3 2 2 2 1 1 1 1 1 0 0 0 0 0 0 0 0 0 0 0 0 0 0 0 0 0 0 0 0 0 0 0 0 0 0 0 0 0 0 0 0
5 4 4 3 2 2 1 1 1 1 1 0 0 0 0 0 0 0 0 0 0 0 0 0 0 0 0 0 0 0 0 0 0 0 0 0 0 0 0 0 0 0 0
5 5 4 4 3 2 2 1 1 1 1 0 0 0 0 0 0 0 0 0 0 0 0 0 0 0 0 0 0 0 0 0 0 0 0 0 0 0 0 0 0 0 0
5 5 4 4 4 3 2 1 1 1 1 1 0 0 0 0 0 0 0 0 0 0 0 0 1 1 0 0 0 0 0 0 0 0 0 0 0 0 0 0 0 0 0
4 5 4 3 3 3 2 2 1 1 1 1 1 0 0 0 0 0 0 0 0 0 0 0 1 1 0 0 0 0 0 0 0 0 0 0 0 0 0 0 0 0 0
4 4 3 3 3 3 2 2 2 1 1 1 1 0 0 0 0 0 0 0 0 0 0 0 0 0 0 0 0 0 0 0 0 0 0 0 0 0 0 0 0 0 0
4 3 3 3 3 2 2 2 2 1 1 1 1 0 0 0 0 0 0 0 0 0 0 0 0 0 0 0 0 0 0 0 0 0 0 1 1 1 0 0 0 0 0
3 3 3 3 3 2 2 2 1 1 1 1 1 0 0 0 0 0 0 0 0 0 0 0 0 0 0 0 0 0 0 0 0 0 0 0 1 1 0 0 0 0 0
3 3 3 3 2 2 2 1 1 1 1 1 1 0 0 0 0 0 0 0 0 0 0 0 0 0 0 0 0 0 0 0 0 0 0 0 0 0 0 0 0 0 0
2 3 3 3 2 2 1 1 1 1 1 1 0 0 0 0 0 0 0 0 0 0 0 0 0 0 0 0 0 0 0 0 0 0 0 0 0 0 0 0 0 0 0
2 2 3 2 2 1 1 1 1 1 1 1 0 0 0 0 0 0 0 0 0 0 0 0 0 0 0 0 0 0 0 0 0 0 0 0 0 0 0 0 1 1 1
3 3 2 2 2 1 1 1 1 1 1 1 0 0 0 0 0 0 0 0 0 0 0 0 0 0 0 0 0 0 0 0 0 0 0 0 0 0 0 0 0 0 0
3 3 2 2 2 2 1 1 1 1 1 1 0 0 0 0 0 0 0 0 0 0 0 0 0 0 0 0 0 0 0 0 0 0 0 0 0 0 0 0 0 0 0
3 3 2 2 2 2 2 1 1 1 1 0 0 0 0 0 0 0 0 0 0 0 0 0 0 0 0 0 0 0 0 0 0 0 0 0 0 0 0 0 0 0 0
2 2 2 2 2 2 2 1 1 0 0 0 0 0 0 0 0 0 0 0 0 0 0 0 0 0 0 0 0 0 0 0 0 0 0 0 0 0 0 0 0 0 0
2 2 3 2 2 2 2 1 1 0 0 0 0 0 0 0 0 0 0 0 0 0 0 0 0 0 0 0 0 0 0 0 0 0 0 0 0 0 0 0 0 0 0
2 2 2 2 2 2 2 1 0 0 0 0 0 0 0 0 0 0 0 0 0 0 0 0 0 0 0 0 0 0 0 0 0 0 0 0 0 0 0 0 0 0 0
2 2 2 2 2 2 1 1 0 0 0 0 0 0 0 0 0 0 0 0 0 0 0 0 0 0 0 0 0 0 0 0 0 0 0 0 0 0 0 0 0 0 0
Wind_Speed
8 9 16 17 17 17 17 17 17 17 16 16 16 16 16 15 14 13 12 12 11 10 10 10 9 9 10 10 10 11 12 12 12 13 14 14 14 15 15 16 15 12 16
13 12 17 17 17 17 17 16 16 16 16 16 16 15 15 14 13 13 12 11 11 10 10 10 10 10 10 10 11 11 11 12 12 13 13 13 14 14 15 15 14 10 16
15 12 15 17 17 17 16 16 16 16 15 15 15 14 14 13 13 12 12 11 11 11 10 10 10 10 11 11 11 11 11 11 11 12 12 8 9 13 14 14 15 15 15
15 11 13 18 17 17 16 16 15 15 15 14 14 13 13 12 12 11 11 11 11 11 10 10 10 11 11 10 11 11 11 11 12 12 7 6 7 12 13 14 14 14 14
13 10 13 20 18 17 16 16 15 15 14 14 13 13 12 12 11 11 11 10 10 10 10 10 10 10 10 10 10 11 11 11 12 9 6 6 6 11 13 14 14 14 14
11 10 13 20 18 17 16 16 15 14 13 13 13 12 11 11 11 10 10 10 10 10 9 9 9 9 10 10 10 10 11 12 10 7 6 6 6 11 13 13 13 13 13
11 9 12 19 18 17 16 16 15 14 13 13 12 11 11 11 10 9 9 9 9 9 8 8 8 8 8 8 8 9 11 13 8 6 6 5 6 11 12 12 12 13 12
13 10 11 18 18 17 16 16 15 14 13 12 12 11 10 10 9 9 8 8 8 7 7 7 7 7 7 7 7 9 11 12 8 7 5 5 8 10 12 12 11 12 12
11 10 8 10 13 17 16 16 15 14 13 12 11 10 10 9 9 8 7 7 7 6 6 6 6 6 5 6 6 8 10 11 7 5 6 4 8 10 11 11 11 11 11
9 9 8 8 7 8 9 15 15 14 12 11 11 10 9 9 8 7 6 5 5 5 5 4 4 4 4 4 5 7 9 9 6 5 4 5 9 11 11 11 10 10 10
10 7 7 7 7 6 6 11 12 13 12 10 8 10 7 3 3 3 5 5 5 4 4 3 3 3 4 4 4 6 7 3 5 4 4 7 9 11 11 10 10 10 10
12 10 7 7 7 7 7 5 4 4 5 4 3 3 3 2 2 2 3 5 5 4 3 2 2 2 3 2 3 4 2 4 3 3 4 8 9 10 10 10 9 9 9
11 11 9 8 7 7 4 5 3 2 3 3 3 3 3 2 1 1 1 0 0 1 1 1 2 2 2 1 1 1 2 2 2 2 3 8 8 9 10 9 9 9 9
9 9 8 8 7 6 5 5 4 3 3 3 3 3 3 2 1 1 1 1 1 1 1 1 1 1 1 1 2 2 2 2 2 2 2 8 7 8 9 9 8 8 8
9 9 7 7 7 6 5 4 5 4 3 3 3 3 3 3 2 2 1 1 1 1 1 1 1 1 1 1 1 2 2 2 3 2 1 5 7 7 8 8 8 8 8
9 9 8 7 7 6 5 4 4 4 3 3 3 3 4 3 3 2 2 1 1 1 1 1 1 2 1 1 1 1 1 1 2 2 1 1 4 5 6 8 8 9 9
10 9 9 8 7 7 6 5 4 4 4 3 3 3 3 3 4 3 2 1 1 1 2 2 2 2 2 1 1 1 1 1 1 1 1 0 0 3 5 6 7 8 9
8 8 8 8 7 6 6 5 4 4 4 3 3 3 3 4 4 3 3 2 1 2 2 2 2 2 2 2 1 1 1 1 1 1 0 0 0 0 2 5 6 7 8
8 8 8 7 8 7 6 4 4 4 4 3 3 3 3 4 4 3 3 2 2 2 2 2 2 2 2 1 1 2 2 1 1 0 0 1 1 1 1 2 5 6 8
7 7 8 8 7 6 5 5 4 4 3 3 3 3 4 4 4 4 3 3 3 3 2 2 3 3 2 2 2 3 2 2 2 1 1 0 1 2 2 2 1 3 6
7 8 7 8 7 7 5 5 5 3 3 2 2 3 4 4 5 4 3 3 3 3 3 3 3 3 2 1 2 2 3 3 2 2 1 1 1 1 1 2 2 1 2
9 9 8 9 9 8 5 4 4 4 3 2 2 2 3 4 4 4 4 4 3 3 3 3 2 2 2 2 2 2 2 3 3 2 2 1 1 1 1 1 2 2 2
9 9 8 9 8 8 7 5 5 4 4 2 2 2 2 3 4 4 5 4 4 3 3 2 3 4 3 2 1 3 3 2 1 2 2 1 1 1 1 1 1 2 2
8 7 8 8 7 7 8 8 9 6 5 4 3 2 2 3 3 4 5 5 4 3 3 2 2 2 3 2 1 2 1 2 2 0 2 2 2 1 1 1 1 1 2
7 7 8 8 7 7 7 8 8 6 4 3 3 4 3 2 2 3 4 4 4 3 3 3 3 2 2 3 2 2 2 2 1 2 0 2 2 1 1 1 1 1 1
7 7 8 8 8 7 7 7 8 8 7 6 5 4 3 2 1 2 3 4 4 3 3 3 3 3 2 3 2 2 2 2 2 2 1 1 1 2 2 2 2 2 2
Wind_Direction
160 159 156 147 140 134 130 127 125 124 123 122 122 123 124 125 126 126 126 123 119 115 111 108 106 105 106 107 108 110 115 119 119 119 118 118 116 115 113 112 109 109 111
149 156 156 150 144 138 134 131 129 127 126 126 125 125 126 127 127 126 124 120 118 114 111 109 108 108 108 108 109 112 116 119 118 119 117 117 117 116 116 115 114 116 115
145 153 154 151 147 142 138 134 132 131 130 129 128 128 128 128 127 127 124 121 118 114 111 109 109 109 110 110 112 116 117 116 115 114 111 107 115 119 120 120 118 117 116
145 148 152 153 149 145 142 139 137 136 134 132 131 130 130 129 129 129 125 123 120 115 112 109 109 109 110 112 115 118 119 115 113 107 99 107 116 123 122 121 120 120 118
144 147 156 154 152 149 146 143 141 140 139 137 136 135 134 133 132 129 126 124 120 115 111 109 109 109 111 115 120 124 124 119 113 101 97 101 107 124 123 122 122 121 120
144 148 159 155 154 152 150 147 146 145 144 143 140 140 139 136 134 131 129 126 121 115 110 108 108 108 111 116 122 129 131 125 112 104 102 109 117 127 125 125 125 124 123
144 149 158 156 156 155 153 151 150 150 150 148 144 142 140 138 137 134 131 128 124 119 114 110 107 106 110 115 123 130 134 129 120 115 112 115 124 129 127 126 126 125 127
148 150 155 158 158 158 156 155 154 154 153 151 149 148 146 146 144 141 137 134 130 125 119 113 109 104 103 107 116 127 135 133 130 128 122 123 131 131 130 129 129 129 130
147 148 151 156 159 161 159 158 158 158 157 155 154 153 153 153 153 151 147 144 140 133 127 120 111 103 98 104 114 128 136 136 132 135 136 130 134 135 134 133 133 133 135
148 149 147 149 151 154 158 162 162 162 161 160 159 160 161 161 161 159 153 159 153 147 140 130 114 98 90 99 109 127 131 129 133 137 135 148 146 144 141 139 138 137 137
155 149 146 147 145 143 151 167 164 165 165 163 164 168 161 139 138 151 164 174 170 165 159 148 123 97 84 78 94 115 113 114 130 136 143 157 157 153 148 146 146 144 142
165 159 155 156 150 148 161 153 144 146 147 140 133 134 117 116 138 159 185 185 184 181 175 166 138 92 80 64 74 98 104 126 131 143 161 164 165 161 155 153 151 150 148
166 164 162 162 154 153 146 137 126 117 121 123 126 121 121 115 116 116 101 152 97 150 73 60 62 66 86 94 89 109 130 130 139 148 169 172 173 169 163 161 160 159 156
162 166 161 160 156 153 143 140 133 131 133 132 132 134 134 132 135 137 135 114 81 73 92 80 79 81 86 105 130 139 138 134 139 144 175 179 178 176 171 168 169 169 166
169 167 161 159 159 151 144 147 146 143 146 142 137 143 148 148 150 140 129 121 121 111 121 130 123 113 99 88 126 154 160 154 146 144 160 185 181 181 181 178 180 185 180
176 169 161 163 162 151 150 148 146 144 140 136 140 149 148 145 143 137 131 126 122 123 131 136 127 116 101 104 91 122 141 144 143 142 135 200 196 191 194 192 192 196 193
178 172 169 170 163 157 155 156 145 141 137 138 138 141 141 141 141 138 135 136 137 115 115 104 89 87 97 94 68 51 76 104 126 144 149 113 187 213 206 203 205 206 205
175 171 176 179 168 166 158 149 140 138 136 137 134 134 140 140 139 135 134 138 128 113 112 108 93 87 79 82 76 35 39 44 110 170 168 179 148 207 220 216 218 218 217
172 171 173 173 169 164 152 137 127 126 129 131 129 130 132 133 136 130 126 123 116 104 100 115 86 97 96 84 92 58 30 23 17 6 198 211 214 211 208 239 235 229 228
167 172 175 166 160 146 131 115 104 102 109 115 123 128 128 128 130 121 115 111 111 105 94 93 96 78 83 87 80 62 33 17 29 21 354 328 226 225 213 224 235 248 239
166 167 172 167 158 151 144 144 139 142 138 121 124 125 129 132 131 124 119 110 110 111 118 117 101 87 65 59 82 47 20 23 31 20 9 4 331 271 205 204 204 217 246
175 172 171 171 166 165 163 152 137 130 125 114 106 112 130 133 137 134 130 126 121 113 107 107 115 106 69 47 110 95 37 3 3 14 7 6 347 334 249 220 206 210 223
175 175 175 171 164 160 151 128 111 94 85 93 112 118 126 133 134 130 134 131 130 125 127 122 131 133 129 64 63 133 141 205 303 338 6 18 354 348 333 297 236 221 217
175 168 162 158 154 155 151 149 148 148 154 170 160 147 122 122 130 136 136 133 130 127 130 135 129 132 135 132 85 59 102 144 146 350 339 354 350 344 324 314 304 258 228
162 159 154 150 148 155 157 157 152 144 143 131 128 132 124 111 125 137 136 133 134 133 136 127 118 122 127 139 143 130 101 74 88 138 235 329 344 331 308 291 281 272 246
147 149 151 152 151 152 153 156 154 152 147 143 147 150 149 138 135 148 142 141 142 142 145 139 128 128 122 121 126 135 145 148 157 147 165 244 301 309 315 295 266 258 251